Home   Weather   Nea Smyrni   Past weeks

Flag for Greece Past Weather in Nea Smyrni, Greece — Yesterday and Last 2 Weeks

Now
68 °F

Passing clouds.


Feels Like: 68 °F
Forecast: 58 / 74 °F
Wind: 9 mph from Northeast

Location: Eleftherios Venizelos International Airport

Current Time: Sep 25, 2016 at 8:33:50 PM

Latest Report: Sep 25, 2016 at 7:50 PM


Visibility: N/A

Pressure: 30.01 "Hg

Humidity: 40%

Dew Point: 43 °F

Location of Nea SmyrniLocation

Past Weather in Nea Smyrni — Graph

°F

Nea Smyrni Temperature Yesterday

Maximum temperature yesterday: 75 °F (at 3:50 PM)
Minimum temperature yesterday: 59 °F (at 5:50 AM)
Average temperature yesterday: 67 °F

High & Low Weather Summary for the Past Weeks

 TemperatureHumidityPressure
High95 °F (Sep 18, 1:50 PM)94% (Sep 22, 1:50 AM)30.27 "Hg (Sep 22, 1:50 AM)
Low59 °F (Sep 17, 6:20 AM)23% (Sep 18, 1:50 PM)29.71 "Hg (Sep 20, 4:50 AM)
Average74 °F55%29.97 "Hg
* Reported Sep 10 6:20 PM — Sep 25 6:50 PM, Nea Smyrni, Weather by CustomWeather, © 2016

Note: Actual official high and low records may vary slightly from our data, if they occured in-between our weather recording intervals... More about our weather records

Advertising

Nea Smyrni Weather History for the Previous 24 Hours

Scroll right to see more
 ConditionsComfort  
Time TempWeatherWind HumidityBarometerVisibility
6:50 PM
Sun, Sep 25
70 °FPassing clouds.15 mph33%30.01 "HgN/A
6:20 PM72 °FPassing clouds.20 mph33%30.01 "HgN/A
5:50 PM72 °FPassing clouds.20 mph33%30.01 "HgN/A
5:20 PM73 °FPassing clouds.17 mph33%30.01 "HgN/A
4:50 PM73 °FPassing clouds.18 mph33%30.01 "HgN/A
4:20 PM73 °FScattered clouds.21 mph33%30.01 "HgN/A
3:50 PM73 °FScattered clouds.20 mph36%30.01 "HgN/A
3:20 PM75 °FScattered clouds.20 mph31%30.04 "HgN/A
2:50 PM75 °FScattered clouds.22 mph29%30.04 "HgN/A
2:20 PM73 °FScattered clouds.21 mph33%30.04 "HgN/A
1:50 PM73 °FScattered clouds.20 mph33%30.07 "HgN/A
1:20 PM73 °FScattered clouds.17 mph31%30.07 "HgN/A
12:50 PM73 °FScattered clouds.17 mph31%30.07 "HgN/A
12:20 PM73 °FScattered clouds.15 mph31%30.07 "HgN/A
11:50 AM73 °FScattered clouds.14 mph36%30.09 "HgN/A
11:20 AM72 °FScattered clouds.15 mph41%30.09 "HgN/A
10:50 AM72 °FScattered clouds.17 mph41%30.09 "HgN/A
10:20 AM70 °FScattered clouds.16 mph46%30.09 "HgN/A
9:50 AM70 °FPassing clouds.14 mph50%30.09 "HgN/A
9:20 AM68 °FPassing clouds.9 mph53%30.09 "HgN/A
8:50 AM66 °FPassing clouds.9 mph52%30.09 "HgN/A
8:20 AM64 °FPassing clouds.5 mph56%30.09 "HgN/A
7:50 AM63 °FPassing clouds.7 mph56%30.09 "HgN/A
7:20 AM63 °FPassing clouds.6 mph56%30.12 "HgN/A
6:50 AM59 °FPassing clouds.7 mph68%30.12 "HgN/A
6:20 AM61 °FClear.8 mph59%30.12 "Hg10 mi
5:50 AM63 °FClear.6 mph56%30.12 "Hg10 mi
5:20 AM63 °FClear.6 mph56%30.12 "Hg10 mi
4:50 AM63 °FClear.6 mph59%30.12 "Hg10 mi
4:20 AM63 °FClear.6 mph59%30.12 "Hg10 mi
3:50 AM63 °FClear.6 mph56%30.12 "Hg10 mi
3:20 AM63 °FClear.7 mph56%30.12 "Hg10 mi
2:50 AM63 °FClear.7 mph56%30.15 "Hg10 mi
2:20 AM64 °FClear.9 mph52%30.15 "Hg10 mi
1:50 AM63 °FClear.10 mph56%30.15 "Hg10 mi
1:20 AM63 °FClear.10 mph52%30.15 "Hg10 mi
12:50 AM63 °FClear.7 mph52%30.15 "Hg10 mi
12:20 AM61 °FClear.9 mph55%30.18 "Hg10 mi
11:50 PM
Sat, Sep 24
61 °FClear.8 mph55%30.18 "Hg10 mi
11:20 PM61 °FClear.7 mph55%30.18 "Hg10 mi
10:50 PM64 °FClear.7 mph46%30.18 "Hg10 mi
10:20 PM66 °FClear.5 mph46%30.18 "Hg10 mi
9:50 PM66 °FClear.7 mph46%30.21 "Hg10 mi
9:20 PM66 °FClear.9 mph46%30.21 "Hg10 mi
8:50 PM66 °FClear.8 mph43%30.21 "Hg10 mi
Weather by CustomWeather, © 2016

See weather overviewHow to use our weather pages